Time,TemperatureF,DewpointF,PressureIn,WindDirection,WindDirectionDegrees,WindSpeedMPH,WindSpeedGustMPH,Humidity,HourlyPrecipIn,Conditions,Clouds,dailyrainin,SoftwareType,DateUTC
2013-03-13 00:00:00,40.6,30.6,30.03,North,0,11.0,11.0,67,0.00,,,0.00,meteohub,2013-03-13 04:00:00,
2013-03-13 00:01:00,40.6,30.6,30.03,North,0,11.0,11.0,67,0.00,,,0.00,meteohub,2013-03-13 04:01:00,
2013-03-13 00:06:00,40.6,30.6,30.02,North,0,11.0,11.0,67,0.00,,,0.00,meteohub,2013-03-13 04:06:00,
2013-03-13 00:11:00,40.6,30.6,30.03,NW,315,4.0,11.0,67,0.00,,,0.00,meteohub,2013-03-13 04:11:00,
2013-03-13 00:16:00,40.6,30.6,30.03,North,0,8.0,11.0,67,0.00,,,0.00,meteohub,2013-03-13 04:16:00,
2013-03-13 00:21:00,40.6,30.6,30.03,SW,225,8.0,11.0,67,0.00,,,0.00,meteohub,2013-03-13 04:21:00,
2013-03-13 00:26:00,40.5,30.4,30.03,North,0,4.0,13.0,67,0.00,,,0.00,meteohub,2013-03-13 04:26:00,
2013-03-13 00:31:00,40.6,30.6,30.03,North,0,7.0,13.0,67,0.00,,,0.00,meteohub,2013-03-13 04:31:00,
2013-03-13 00:36:00,40.5,30.4,30.03,North,0,7.0,13.0,67,0.00,,,0.00,meteohub,2013-03-13 04:36:00,
2013-03-13 00:41:00,40.5,30.4,30.03,SW,225,11.0,11.0,67,0.00,,,0.00,meteohub,2013-03-13 04:41:00,
2013-03-13 00:46:00,40.3,30.2,30.03,North,0,9.0,12.0,67,0.00,,,0.00,meteohub,2013-03-13 04:46:00,
2013-03-13 00:51:00,40.3,30.6,30.02,NW,315,11.0,12.0,68,0.00,,,0.00,meteohub,2013-03-13 04:51:00,
2013-03-13 00:57:00,40.5,30.4,30.02,NW,315,12.0,12.0,67,0.00,,,0.00,meteohub,2013-03-13 04:57:00,
2013-03-13 01:02:00,40.5,30.4,30.03,NNW,338,6.0,12.0,67,0.00,,,0.00,meteohub,2013-03-13 05:02:00,
2013-03-13 01:07:00,40.5,30.4,30.02,North,0,8.0,12.0,67,0.00,,,0.00,meteohub,2013-03-13 05:07:00,
2013-03-13 01:12:00,40.1,30.0,30.02,SE,135,5.0,12.0,67,0.00,,,0.00,meteohub,2013-03-13 05:12:00,
2013-03-13 01:17:00,40.1,30.4,30.02,NW,315,8.0,8.0,68,0.00,,,0.00,meteohub,2013-03-13 05:17:00,
2013-03-13 01:22:00,40.1,30.4,30.03,NW,315,7.0,11.0,68,0.00,,,0.00,meteohub,2013-03-13 05:22:00,
2013-03-13 01:27:00,40.1,30.4,30.03,NE,45,8.0,11.0,68,0.00,,,0.00,meteohub,2013-03-13 05:27:00,
2013-03-13 01:32:00,39.9,30.2,30.03,North,0,7.0,11.0,68,0.00,,,0.00,meteohub,2013-03-13 05:32:00,
2013-03-13 01:37:00,40.1,30.4,30.03,North,0,9.0,11.0,68,0.00,,,0.00,meteohub,2013-03-13 05:37:00,
2013-03-13 01:42:00,40.3,30.6,30.02,North,0,5.0,11.0,68,0.00,,,0.00,meteohub,2013-03-13 05:42:00,
2013-03-13 01:47:00,40.1,30.4,30.02,North,0,8.0,11.0,68,0.00,,,0.00,meteohub,2013-03-13 05:47:00,
2013-03-13 01:52:00,39.7,30.0,30.02,NE,45,3.0,11.0,68,0.00,,,0.00,meteohub,2013-03-13 05:52:00,
2013-03-13 01:57:00,39.6,29.8,30.02,NW,315,2.0,8.0,68,0.00,,,0.00,meteohub,2013-03-13 05:57:00,
2013-03-13 02:02:00,39.4,30.0,30.02,North,0,2.0,8.0,69,0.00,,,0.00,meteohub,2013-03-13 06:02:00,
2013-03-13 02:07:00,39.4,30.0,30.02,North,0,2.0,3.0,69,0.00,,,0.00,meteohub,2013-03-13 06:07:00,
2013-03-13 02:12:00,37.9,29.7,30.02,SW,225,2.0,2.0,72,0.00,,,0.00,meteohub,2013-03-13 06:12:00,
2013-03-13 02:17:00,37.2,28.0,30.02,South,180,3.0,3.0,69,0.00,,,0.00,meteohub,2013-03-13 06:17:00,
2013-03-13 02:22:00,36.5,27.7,30.01,South,180,2.0,3.0,70,0.00,,,0.00,meteohub,2013-03-13 06:22:00,
2013-03-13 02:28:00,36.1,27.7,30.01,South,180,2.0,3.0,71,0.00,,,0.00,meteohub,2013-03-13 06:28:00,
2013-03-13 02:32:00,36.0,27.9,30.01,SE,135,1.0,3.0,72,0.00,,,0.00,meteohub,2013-03-13 06:32:00,
2013-03-13 02:38:00,35.8,27.7,30.01,South,180,2.0,3.0,72,0.00,,,0.00,meteohub,2013-03-13 06:38:00,
2013-03-13 02:43:00,35.6,27.9,30.01,South,180,2.0,2.0,73,0.00,,,0.00,meteohub,2013-03-13 06:43:00,
2013-03-13 02:48:00,35.6,27.9,30.01,West,270,2.0,2.0,73,0.00,,,0.00,meteohub,2013-03-13 06:48:00,
2013-03-13 02:53:00,35.6,28.2,30.01,SW,225,2.0,2.0,74,0.00,,,0.00,meteohub,2013-03-13 06:53:00,
2013-03-13 02:58:00,35.4,28.6,30.00,South,180,2.0,2.0,76,0.00,,,0.00,meteohub,2013-03-13 06:58:00,
2013-03-13 03:03:00,35.6,28.4,30.00,South,180,2.0,3.0,75,0.00,,,0.00,meteohub,2013-03-13 07:03:00,
2013-03-13 03:08:00,35.6,28.4,30.00,SW,225,2.0,3.0,75,0.00,,,0.00,meteohub,2013-03-13 07:08:00,
2013-03-13 03:13:00,35.6,28.4,30.00,SE,135,2.0,3.0,75,0.00,,,0.00,meteohub,2013-03-13 07:13:00,
2013-03-13 03:18:00,36.0,28.8,30.00,South,180,2.0,3.0,75,0.00,,,0.00,meteohub,2013-03-13 07:18:00,
2013-03-13 03:23:00,36.0,28.4,30.00,South,180,2.0,3.0,74,0.00,,,0.00,meteohub,2013-03-13 07:23:00,
2013-03-13 03:28:00,35.8,28.6,30.00,South,180,3.0,4.0,75,0.00,,,0.00,meteohub,2013-03-13 07:28:00,
2013-03-13 03:33:00,35.6,28.4,29.99,North,0,2.0,4.0,75,0.00,,,0.00,meteohub,2013-03-13 07:33:00,
2013-03-13 03:38:00,35.4,28.9,29.99,South,180,1.0,4.0,77,0.00,,,0.00,meteohub,2013-03-13 07:38:00,
2013-03-13 03:43:00,35.2,28.8,30.00,SW,225,2.0,4.0,77,0.00,,,0.00,meteohub,2013-03-13 07:43:00,
2013-03-13 03:48:00,35.2,28.8,30.00,West,270,2.0,4.0,77,0.00,,,0.00,meteohub,2013-03-13 07:48:00,
2013-03-13 03:53:00,35.2,28.8,29.99,North,0,3.0,4.0,77,0.00,,,0.00,meteohub,2013-03-13 07:53:00,
2013-03-13 03:58:00,35.2,28.8,29.99,NE,45,7.0,7.0,77,0.00,,,0.00,meteohub,2013-03-13 07:58:00,
2013-03-13 04:03:00,35.4,28.9,29.99,South,180,4.0,7.0,77,0.00,,,0.00,meteohub,2013-03-13 08:03:00,
2013-03-13 04:08:00,38.7,31.8,29.99,NE,45,7.0,7.0,76,0.00,,,0.00,meteohub,2013-03-13 08:08:00,
2013-03-13 04:13:00,39.9,31.6,29.99,NE,45,6.0,7.0,72,0.00,,,0.00,meteohub,2013-03-13 08:13:00,
2013-03-13 04:18:00,40.5,31.1,29.99,North,0,8.0,9.0,69,0.00,,,0.00,meteohub,2013-03-13 08:18:00,
2013-03-13 04:23:00,41.0,30.6,30.00,South,180,10.0,10.0,66,0.00,,,0.00,meteohub,2013-03-13 08:23:00,
2013-03-13 04:28:00,41.5,30.2,30.00,South,180,3.0,10.0,64,0.00,,,0.00,meteohub,2013-03-13 08:28:00,
2013-03-13 04:33:00,41.7,30.0,30.00,SE,135,8.0,10.0,63,0.00,,,0.00,meteohub,2013-03-13 08:33:00,
2013-03-13 04:38:00,41.9,30.2,30.00,SE,135,11.0,11.0,63,0.00,,,0.00,meteohub,2013-03-13 08:38:00,
2013-03-13 04:43:00,42.1,29.7,30.01,NE,45,4.0,11.0,61,0.00,,,0.00,meteohub,2013-03-13 08:43:00,
2013-03-13 04:48:00,41.9,29.5,30.00,NE,45,8.0,17.0,61,0.00,,,0.00,meteohub,2013-03-13 08:48:00,
2013-03-13 04:53:00,41.7,28.9,30.01,East,90,10.0,17.0,60,0.00,,,0.00,meteohub,2013-03-13 08:53:00,
2013-03-13 04:58:00,41.7,28.9,30.01,SW,225,5.0,11.0,60,0.00,,,0.00,meteohub,2013-03-13 08:58:00,
2013-03-13 05:03:00,41.4,28.6,30.01,NE,45,12.0,12.0,60,0.00,,,0.00,meteohub,2013-03-13 09:03:00,
2013-03-13 05:08:00,41.4,28.0,30.01,NE,45,6.0,10.0,59,0.00,,,0.00,meteohub,2013-03-13 09:08:00,
2013-03-13 05:13:00,41.2,27.9,30.01,NW,315,8.0,12.0,59,0.00,,,0.00,meteohub,2013-03-13 09:13:00,
2013-03-13 05:18:00,41.0,27.9,30.01,NE,45,11.0,12.0,59,0.00,,,0.00,meteohub,2013-03-13 09:18:00,
2013-03-13 05:23:00,41.0,27.3,30.01,NE,45,8.0,11.0,58,0.00,,,0.00,meteohub,2013-03-13 09:23:00,
2013-03-13 05:28:00,40.8,27.7,30.02,East,90,2.0,11.0,59,0.00,,,0.00,meteohub,2013-03-13 09:28:00,
2013-03-13 05:33:00,40.6,27.9,30.02,NE,45,3.0,11.0,60,0.00,,,0.00,meteohub,2013-03-13 09:33:00,
2013-03-13 05:39:00,40.3,27.1,30.02,North,0,4.0,11.0,59,0.00,,,0.00,meteohub,2013-03-13 09:39:00,
2013-03-13 05:44:00,40.1,27.3,30.02,NE,45,4.0,7.0,60,0.00,,,0.00,meteohub,2013-03-13 09:44:00,
2013-03-13 05:49:00,39.9,26.8,30.02,North,0,1.0,7.0,59,0.00,,,0.00,meteohub,2013-03-13 09:49:00,
2013-03-13 05:54:00,39.4,26.2,30.02,North,0,4.0,7.0,59,0.00,,,0.00,meteohub,2013-03-13 09:54:00,
2013-03-13 05:58:00,39.4,26.2,30.02,NE,45,2.0,7.0,59,0.00,,,0.00,meteohub,2013-03-13 09:58:00,
2013-03-13 06:04:00,39.4,26.2,30.02,SE,135,2.0,5.0,59,0.00,,,0.00,meteohub,2013-03-13 10:04:00,
2013-03-13 06:09:00,39.2,25.7,30.02,NE,45,6.0,6.0,58,0.00,,,0.00,meteohub,2013-03-13 10:09:00,
2013-03-13 06:14:00,39.4,25.9,30.03,North,0,5.0,6.0,58,0.00,,,0.00,meteohub,2013-03-13 10:14:00,
2013-03-13 06:19:00,39.2,26.1,30.03,SW,225,2.0,6.0,59,0.00,,,0.00,meteohub,2013-03-13 10:19:00,
2013-03-13 06:24:00,39.0,26.2,30.03,East,90,3.0,6.0,60,0.00,,,0.00,meteohub,2013-03-13 10:24:00,
2013-03-13 06:29:00,38.8,26.6,30.03,South,180,1.0,6.0,61,0.00,,,0.00,meteohub,2013-03-13 10:29:00,
2013-03-13 06:34:00,38.7,26.4,30.03,South,180,2.0,6.0,61,0.00,,,0.00,meteohub,2013-03-13 10:34:00,
2013-03-13 06:39:00,38.3,26.4,30.03,NW,315,2.0,6.0,62,0.00,,,0.00,meteohub,2013-03-13 10:39:00,
2013-03-13 06:44:00,38.1,26.6,30.03,SE,135,4.0,7.0,63,0.00,,,0.00,meteohub,2013-03-13 10:44:00,
2013-03-13 06:49:00,37.9,26.8,30.03,South,180,4.0,7.0,64,0.00,,,0.00,meteohub,2013-03-13 10:49:00,
2013-03-13 06:54:00,38.1,26.6,30.03,SE,135,2.0,7.0,63,0.00,,,0.00,meteohub,2013-03-13 10:54:00,
2013-03-13 06:59:00,37.6,27.0,30.03,NE,45,2.0,6.0,65,0.00,,,0.00,meteohub,2013-03-13 10:59:00,
2013-03-13 07:04:00,36.9,24.6,30.03,South,180,2.0,6.0,61,0.00,,,0.00,meteohub,2013-03-13 11:04:00,
2013-03-13 07:09:00,36.1,24.4,30.03,NE,45,2.0,6.0,62,0.00,,,0.00,meteohub,2013-03-13 11:09:00,
2013-03-13 07:14:00,35.6,24.3,30.03,NE,45,2.0,4.0,63,0.00,,,0.00,meteohub,2013-03-13 11:14:00,
2013-03-13 07:19:00,35.1,24.4,30.03,NW,315,2.0,4.0,65,0.00,,,0.00,meteohub,2013-03-13 11:19:00,
2013-03-13 07:24:00,34.5,24.3,30.03,South,180,2.0,4.0,66,0.00,,,0.00,meteohub,2013-03-13 11:24:00,
2013-03-13 07:29:00,34.0,24.3,30.03,South,180,5.0,5.0,67,0.00,,,0.00,meteohub,2013-03-13 11:29:00,
2013-03-13 07:34:00,34.2,24.4,30.03,East,90,6.0,6.0,67,0.00,,,0.00,meteohub,2013-03-13 11:34:00,
2013-03-13 07:39:00,35.1,25.2,30.03,NW,315,4.0,6.0,67,0.00,,,0.00,meteohub,2013-03-13 11:39:00,
2013-03-13 07:44:00,35.4,25.2,30.03,East,90,2.0,6.0,66,0.00,,,0.00,meteohub,2013-03-13 11:44:00,
2013-03-13 07:49:00,35.2,25.3,30.03,South,180,2.0,6.0,67,0.00,,,0.00,meteohub,2013-03-13 11:49:00,
2013-03-13 07:54:00,35.2,24.6,30.03,South,180,4.0,6.0,65,0.00,,,0.00,meteohub,2013-03-13 11:54:00,
2013-03-13 07:59:00,35.8,25.2,30.04,SW,225,2.0,4.0,65,0.00,,,0.00,meteohub,2013-03-13 11:59:00,
2013-03-13 08:04:00,36.1,25.5,30.04,WSW,248,3.0,4.0,65,0.00,,,0.00,meteohub,2013-03-13 12:04:00,
2013-03-13 08:09:00,36.7,26.4,30.03,NW,315,1.0,4.0,66,0.00,,,0.00,meteohub,2013-03-13 12:09:00,
2013-03-13 08:14:00,37.6,28.0,30.03,SSE,158,2.0,5.0,68,0.00,,,0.00,meteohub,2013-03-13 12:14:00,
2013-03-13 08:19:00,38.8,28.4,30.04,South,180,1.0,5.0,66,0.00,,,0.00,meteohub,2013-03-13 12:19:00,
2013-03-13 08:24:00,39.9,28.8,30.04,NE,45,3.0,5.0,64,0.00,,,0.00,meteohub,2013-03-13 12:24:00,
2013-03-13 08:29:00,41.0,27.9,30.04,South,180,2.0,3.0,59,0.00,,,0.00,meteohub,2013-03-13 12:29:00,
2013-03-13 08:34:00,41.7,28.0,30.04,East,90,6.0,7.0,58,0.00,,,0.00,meteohub,2013-03-13 12:34:00,
2013-03-13 08:39:00,42.3,27.7,30.04,NNW,338,4.0,7.0,56,0.00,,,0.00,meteohub,2013-03-13 12:39:00,
2013-03-13 08:44:00,42.8,27.7,30.04,NNW,338,3.0,7.0,55,0.00,,,0.00,meteohub,2013-03-13 12:44:00,
2013-03-13 08:49:00,43.5,28.0,30.03,NNW,338,4.0,6.0,54,0.00,,,0.00,meteohub,2013-03-13 12:49:00,
2013-03-13 08:54:00,43.9,27.9,30.04,South,180,3.0,4.0,53,0.00,,,0.00,meteohub,2013-03-13 12:54:00,
2013-03-13 08:59:00,44.6,28.6,30.04,NW,315,2.0,4.0,53,0.00,,,0.00,meteohub,2013-03-13 12:59:00,
2013-03-13 09:04:00,45.0,27.9,30.04,North,0,4.0,4.0,51,0.00,,,0.00,meteohub,2013-03-13 13:04:00,
2013-03-13 09:09:00,43.9,27.3,30.04,South,180,3.0,8.0,52,0.00,,,0.00,meteohub,2013-03-13 13:09:00,
2013-03-13 09:14:00,43.0,27.0,30.04,North,0,1.0,8.0,53,0.00,,,0.00,meteohub,2013-03-13 13:14:00,
2013-03-13 09:19:00,42.6,27.5,30.03,SE,135,2.0,8.0,55,0.00,,,0.00,meteohub,2013-03-13 13:19:00,
2013-03-13 09:24:00,43.2,27.7,30.03,South,180,2.0,7.0,54,0.00,,,0.00,meteohub,2013-03-13 13:24:00,
2013-03-13 09:29:00,44.4,29.3,30.04,SW,225,2.0,4.0,55,0.00,,,0.00,meteohub,2013-03-13 13:29:00,
2013-03-13 09:34:00,45.5,29.3,30.04,SE,135,3.0,3.0,53,0.00,,,0.00,meteohub,2013-03-13 13:34:00,
2013-03-13 09:39:00,44.8,28.2,30.04,NW,315,3.0,7.0,52,0.00,,,0.00,meteohub,2013-03-13 13:39:00,
2013-03-13 09:44:00,43.9,27.9,30.04,WSW,248,6.0,7.0,53,0.00,,,0.00,meteohub,2013-03-13 13:44:00,
2013-03-13 09:49:00,43.0,27.5,30.04,West,270,5.0,7.0,54,0.00,,,0.00,meteohub,2013-03-13 13:49:00,
2013-03-13 09:55:00,43.2,28.0,30.04,WSW,248,5.0,7.0,55,0.00,,,0.00,meteohub,2013-03-13 13:55:00,
2013-03-13 10:00:00,43.5,28.9,30.04,SSW,203,8.0,8.0,56,0.00,,,0.00,meteohub,2013-03-13 14:00:00,
2013-03-13 10:05:00,43.9,28.8,30.04,SW,225,5.0,7.0,55,0.00,,,0.00,meteohub,2013-03-13 14:05:00,
2013-03-13 10:10:00,45.7,30.4,30.04,WNW,293,8.0,8.0,55,0.00,,,0.00,meteohub,2013-03-13 14:10:00,
2013-03-13 10:15:00,45.5,28.9,30.03,SE,135,4.0,8.0,52,0.00,,,0.00,meteohub,2013-03-13 14:15:00,
2013-03-13 10:20:00,45.5,29.3,30.04,SW,225,7.0,9.0,53,0.00,,,0.00,meteohub,2013-03-13 14:20:00,
2013-03-13 10:25:00,45.5,29.3,30.04,SE,135,5.0,9.0,53,0.00,,,0.00,meteohub,2013-03-13 14:25:00,
2013-03-13 10:30:00,45.0,28.4,30.04,NW,315,10.0,10.0,52,0.00,,,0.00,meteohub,2013-03-13 14:30:00,
2013-03-13 10:35:00,44.4,28.4,30.04,South,180,11.0,11.0,53,0.00,,,0.00,meteohub,2013-03-13 14:35:00,
2013-03-13 10:40:00,43.7,27.7,30.04,NW,315,6.0,11.0,53,0.00,,,0.00,meteohub,2013-03-13 14:40:00,
2013-03-13 10:45:00,43.3,27.9,30.04,SSW,203,5.0,11.0,54,0.00,,,0.00,meteohub,2013-03-13 14:45:00,
2013-03-13 10:50:00,44.1,29.3,30.04,SE,135,2.0,11.0,56,0.00,,,0.00,meteohub,2013-03-13 14:50:00,
2013-03-13 10:55:00,44.4,30.2,30.04,South,180,8.0,11.0,57,0.00,,,0.00,meteohub,2013-03-13 14:55:00,
2013-03-13 11:00:00,44.6,29.5,30.04,SW,225,5.0,8.0,55,0.00,,,0.00,meteohub,2013-03-13 15:00:00,
2013-03-13 11:05:00,44.6,29.5,30.04,South,180,5.0,10.0,55,0.00,,,0.00,meteohub,2013-03-13 15:05:00,
2013-03-13 11:10:00,44.2,29.1,30.04,South,180,15.0,15.0,55,0.00,,,0.00,meteohub,2013-03-13 15:10:00,
2013-03-13 11:15:00,43.9,28.8,30.04,WSW,248,5.0,15.0,55,0.00,,,0.00,meteohub,2013-03-13 15:15:00,
2013-03-13 11:20:00,44.6,29.8,30.04,SE,135,4.0,15.0,56,0.00,,,0.00,meteohub,2013-03-13 15:20:00,
2013-03-13 11:25:00,44.8,28.8,30.04,SW,225,5.0,15.0,53,0.00,,,0.00,meteohub,2013-03-13 15:25:00,
2013-03-13 11:30:00,44.2,28.2,30.04,SW,225,2.0,11.0,53,0.00,,,0.00,meteohub,2013-03-13 15:30:00,
2013-03-13 11:35:00,43.9,27.9,30.04,SE,135,8.0,11.0,53,0.00,,,0.00,meteohub,2013-03-13 15:35:00,
2013-03-13 11:40:00,43.5,27.1,30.04,WSW,248,8.0,15.0,52,0.00,,,0.00,meteohub,2013-03-13 15:40:00,
2013-03-13 11:45:00,43.2,26.8,30.04,NW,315,6.0,15.0,52,0.00,,,0.00,meteohub,2013-03-13 15:45:00,
2013-03-13 11:50:00,43.7,28.2,30.04,SE,135,3.0,15.0,54,0.00,,,0.00,meteohub,2013-03-13 15:50:00,
2013-03-13 11:55:00,44.2,29.1,30.04,NE,45,4.0,11.0,55,0.00,,,0.00,meteohub,2013-03-13 15:55:00,
2013-03-13 12:00:00,45.0,29.8,30.04,South,180,10.0,11.0,55,0.00,,,0.00,meteohub,2013-03-13 16:00:00,
2013-03-13 12:05:00,45.9,30.6,30.04,NW,315,9.0,14.0,55,0.00,,,0.00,meteohub,2013-03-13 16:05:00,
2013-03-13 12:10:00,45.7,29.5,30.04,SW,225,6.0,14.0,53,0.00,,,0.00,meteohub,2013-03-13 16:10:00,
2013-03-13 12:15:00,46.9,31.6,30.03,SE,135,7.0,16.0,55,0.00,,,0.00,meteohub,2013-03-13 16:15:00,
2013-03-13 12:20:00,47.5,31.6,30.04,South,180,6.0,16.0,54,0.00,,,0.00,meteohub,2013-03-13 16:20:00,
2013-03-13 12:25:00,47.8,31.1,30.03,SW,225,8.0,16.0,52,0.00,,,0.00,meteohub,2013-03-13 16:25:00,
2013-03-13 12:30:00,49.1,32.7,30.03,SSE,158,9.0,13.0,53,0.00,,,0.00,meteohub,2013-03-13 16:30:00,
2013-03-13 12:35:00,48.9,30.6,30.03,SW,225,8.0,13.0,49,0.00,,,0.00,meteohub,2013-03-13 16:35:00,
2013-03-13 12:40:00,48.0,29.8,30.03,South,180,8.0,11.0,49,0.00,,,0.00,meteohub,2013-03-13 16:40:00,
2013-03-13 12:45:00,47.1,28.9,30.03,West,270,8.0,11.0,49,0.00,,,0.00,meteohub,2013-03-13 16:45:00,
2013-03-13 12:50:00,46.0,27.9,30.03,SW,225,12.0,15.0,49,0.00,,,0.00,meteohub,2013-03-13 16:50:00,
2013-03-13 12:55:00,45.3,27.3,30.03,South,180,8.0,15.0,49,0.00,,,0.00,meteohub,2013-03-13 16:55:00,
2013-03-13 13:00:00,44.1,27.5,30.03,NE,45,13.0,18.0,52,0.00,,,0.00,meteohub,2013-03-13 17:00:00,
2013-03-13 13:06:00,42.4,27.9,30.04,North,0,16.0,18.0,56,0.00,,,0.00,meteohub,2013-03-13 17:06:00,
2013-03-13 13:11:00,42.1,29.1,30.04,South,180,13.0,18.0,60,0.00,,,0.00,meteohub,2013-03-13 17:11:00,
2013-03-13 13:16:00,41.9,30.2,30.04,North,0,2.0,18.0,63,0.00,,,0.00,meteohub,2013-03-13 17:16:00,
2013-03-13 13:21:00,42.6,31.6,30.04,NE,45,11.0,16.0,65,0.00,,,0.00,meteohub,2013-03-13 17:21:00,
2013-03-13 13:26:00,42.6,31.3,30.04,East,90,10.0,15.0,64,0.00,,,0.00,meteohub,2013-03-13 17:26:00,
2013-03-13 13:31:00,41.5,30.2,30.05,NW,315,12.0,17.0,64,0.00,,,0.00,meteohub,2013-03-13 17:31:00,
2013-03-13 13:36:00,40.5,30.0,30.05,NW,315,8.0,20.0,66,0.00,,,0.00,meteohub,2013-03-13 17:36:00,
2013-03-13 13:41:00,40.3,30.2,30.06,South,180,15.0,20.0,67,0.00,,,0.00,meteohub,2013-03-13 17:41:00,
2013-03-13 13:47:00,38.5,29.1,30.04,East,90,9.0,20.0,69,0.00,,,0.00,meteohub,2013-03-13 17:47:00,
2013-03-13 13:52:00,39.0,31.1,30.04,North,0,15.0,15.0,73,0.00,,,0.00,meteohub,2013-03-13 17:52:00,
2013-03-13 13:57:00,39.4,30.0,30.04,NE,45,7.0,15.0,69,0.00,,,0.00,meteohub,2013-03-13 17:57:00,
2013-03-13 14:02:00,40.5,30.4,30.04,NE,45,7.0,15.0,67,0.00,,,0.00,meteohub,2013-03-13 18:02:00,
2013-03-13 14:07:00,41.9,31.5,30.04,North,0,8.0,15.0,66,0.00,,,0.00,meteohub,2013-03-13 18:07:00,
2013-03-13 14:12:00,42.3,30.9,30.03,NE,45,8.0,12.0,64,0.00,,,0.00,meteohub,2013-03-13 18:12:00,
2013-03-13 14:17:00,42.3,29.8,30.02,NE,45,11.0,12.0,61,0.00,,,0.00,meteohub,2013-03-13 18:17:00,
2013-03-13 14:22:00,42.4,28.2,30.02,NW,315,8.0,12.0,57,0.00,,,0.00,meteohub,2013-03-13 18:22:00,
2013-03-13 14:27:00,42.4,27.9,30.02,NNW,338,10.0,20.0,56,0.00,,,0.00,meteohub,2013-03-13 18:27:00,
2013-03-13 14:32:00,42.8,27.3,30.02,North,0,8.0,20.0,54,0.00,,,0.00,meteohub,2013-03-13 18:32:00,
2013-03-13 14:37:00,43.5,27.5,30.01,NW,315,8.0,20.0,53,0.00,,,0.00,meteohub,2013-03-13 18:37:00,
2013-03-13 14:42:00,44.2,28.2,30.01,NW,315,5.0,11.0,53,0.00,,,0.00,meteohub,2013-03-13 18:42:00,
2013-03-13 14:47:00,44.8,28.2,30.01,North,0,9.0,13.0,52,0.00,,,0.00,meteohub,2013-03-13 18:47:00,
2013-03-13 14:52:00,45.3,28.2,30.01,South,180,12.0,13.0,51,0.00,,,0.00,meteohub,2013-03-13 18:52:00,
2013-03-13 14:57:00,44.2,25.7,30.01,ENE,68,10.0,13.0,48,0.00,,,0.00,meteohub,2013-03-13 18:57:00,
2013-03-13 15:02:00,43.7,24.3,30.00,South,180,10.0,17.0,46,0.00,,,0.00,meteohub,2013-03-13 19:02:00,
2013-03-13 15:07:00,44.4,25.5,30.00,South,180,12.0,21.0,47,0.00,,,0.00,meteohub,2013-03-13 19:07:00,
2013-03-13 15:12:00,45.5,24.3,30.00,North,0,8.0,21.0,43,0.00,,,0.00,meteohub,2013-03-13 19:12:00,
2013-03-13 15:17:00,46.4,24.6,30.00,East,90,8.0,21.0,42,0.00,,,0.00,meteohub,2013-03-13 19:17:00,
2013-03-13 15:22:00,46.9,23.9,30.00,North,0,6.0,16.0,40,0.00,,,0.00,meteohub,2013-03-13 19:22:00,
2013-03-13 15:27:00,47.1,24.1,30.00,West,270,10.0,16.0,40,0.00,,,0.00,meteohub,2013-03-13 19:27:00,
2013-03-13 15:32:00,48.0,24.3,30.00,North,0,11.0,14.0,39,0.00,,,0.00,meteohub,2013-03-13 19:32:00,
2013-03-13 15:37:00,47.8,22.1,30.01,NW,315,9.0,18.0,36,0.00,,,0.00,meteohub,2013-03-13 19:37:00,
2013-03-13 15:42:00,45.7,18.9,30.01,SE,135,11.0,18.0,34,0.00,,,0.00,meteohub,2013-03-13 19:42:00,
2013-03-13 15:47:00,44.8,20.7,30.02,North,0,9.0,19.0,38,0.00,,,0.00,meteohub,2013-03-13 19:47:00,
2013-03-13 15:53:00,44.2,24.3,30.03,North,0,11.0,19.0,45,0.00,,,0.00,meteohub,2013-03-13 19:53:00,
2013-03-13 15:58:00,42.4,28.8,30.03,NW,315,16.0,17.0,58,0.00,,,0.00,meteohub,2013-03-13 19:58:00,
2013-03-13 16:02:00,40.8,30.0,30.03,North,0,14.0,22.0,65,0.00,,,0.00,meteohub,2013-03-13 20:02:00,
2013-03-13 16:08:00,40.5,31.1,30.03,NW,315,19.0,22.0,69,0.00,,,0.00,meteohub,2013-03-13 20:08:00,
2013-03-13 16:13:00,39.7,30.4,30.03,South,180,11.0,22.0,69,0.00,,,0.00,meteohub,2013-03-13 20:13:00,
2013-03-13 16:18:00,39.0,29.7,30.03,SW,225,6.0,22.0,69,0.00,,,0.00,meteohub,2013-03-13 20:18:00,
2013-03-13 16:23:00,39.2,29.5,30.03,East,90,11.0,20.0,68,0.00,,,0.00,meteohub,2013-03-13 20:23:00,
2013-03-13 16:28:00,39.6,29.1,30.03,South,180,4.0,11.0,66,0.00,,,0.00,meteohub,2013-03-13 20:28:00,
2013-03-13 16:33:00,40.1,29.3,30.03,NW,315,6.0,11.0,65,0.00,,,0.00,meteohub,2013-03-13 20:33:00,
2013-03-13 16:38:00,40.3,28.8,30.03,East,90,9.0,11.0,63,0.00,,,0.00,meteohub,2013-03-13 20:38:00,
2013-03-13 16:43:00,40.3,27.9,30.04,SE,135,8.0,11.0,61,0.00,,,0.00,meteohub,2013-03-13 20:43:00,
2013-03-13 16:48:00,40.1,26.6,30.03,NNE,23,8.0,11.0,58,0.00,,,0.00,meteohub,2013-03-13 20:48:00,
2013-03-13 16:53:00,40.3,25.3,30.04,SW,225,4.0,11.0,55,0.00,,,0.00,meteohub,2013-03-13 20:53:00,
2013-03-13 16:58:00,40.5,25.5,30.04,North,0,6.0,17.0,55,0.00,,,0.00,meteohub,2013-03-13 20:58:00,
2013-03-13 17:03:00,40.8,25.5,30.04,NE,45,4.0,17.0,54,0.00,,,0.00,meteohub,2013-03-13 21:03:00,
2013-03-13 17:08:00,41.0,23.7,30.04,East,90,6.0,17.0,50,0.00,,,0.00,meteohub,2013-03-13 21:08:00,
2013-03-13 17:13:00,41.0,22.3,30.04,SE,135,15.0,15.0,47,0.00,,,0.00,meteohub,2013-03-13 21:13:00,
2013-03-13 17:18:00,41.0,22.8,30.05,NE,45,11.0,15.0,48,0.00,,,0.00,meteohub,2013-03-13 21:18:00,
2013-03-13 17:23:00,41.2,23.0,30.05,North,0,5.0,15.0,48,0.00,,,0.00,meteohub,2013-03-13 21:23:00,
2013-03-13 17:28:00,41.2,23.9,30.06,WSW,248,4.0,15.0,50,0.00,,,0.00,meteohub,2013-03-13 21:28:00,
2013-03-13 17:33:00,40.8,24.1,30.06,NE,45,5.0,14.0,51,0.00,,,0.00,meteohub,2013-03-13 21:33:00,
2013-03-13 17:38:00,40.5,23.7,30.06,North,0,8.0,18.0,51,0.00,,,0.00,meteohub,2013-03-13 21:38:00,
2013-03-13 17:43:00,39.7,24.4,30.07,North,0,9.0,18.0,54,0.00,,,0.00,meteohub,2013-03-13 21:43:00,
2013-03-13 17:48:00,39.2,24.4,30.07,South,180,11.0,20.0,55,0.00,,,0.00,meteohub,2013-03-13 21:48:00,
2013-03-13 17:53:00,37.9,25.0,30.08,SSW,203,8.0,20.0,59,0.00,,,0.00,meteohub,2013-03-13 21:53:00,
2013-03-13 17:58:00,38.5,26.2,30.08,North,0,12.0,23.0,61,0.00,,,0.00,meteohub,2013-03-13 21:58:00,
2013-03-13 18:03:00,38.5,25.9,30.08,North,0,13.0,23.0,60,0.00,,,0.00,meteohub,2013-03-13 22:03:00,
2013-03-13 18:08:00,38.1,25.5,30.07,NE,45,9.0,20.0,60,0.00,,,0.00,meteohub,2013-03-13 22:08:00,
2013-03-13 18:13:00,37.9,25.0,30.08,North,0,11.0,14.0,59,0.00,,,0.00,meteohub,2013-03-13 22:13:00,
2013-03-13 18:18:00,37.6,23.7,30.08,SW,225,4.0,13.0,57,0.00,,,0.00,meteohub,2013-03-13 22:18:00,
2013-03-13 18:23:00,37.2,21.7,30.08,North,0,8.0,11.0,53,0.00,,,0.00,meteohub,2013-03-13 22:23:00,
2013-03-13 18:28:00,37.2,21.7,30.08,North,0,11.0,14.0,53,0.00,,,0.00,meteohub,2013-03-13 22:28:00,
2013-03-13 18:33:00,37.0,21.6,30.08,NE,45,12.0,15.0,53,0.00,,,0.00,meteohub,2013-03-13 22:33:00,
2013-03-13 18:39:00,36.9,21.4,30.09,North,0,9.0,18.0,53,0.00,,,0.00,meteohub,2013-03-13 22:39:00,
2013-03-13 18:44:00,36.9,21.4,30.08,North,0,11.0,18.0,53,0.00,,,0.00,meteohub,2013-03-13 22:44:00,
2013-03-13 18:49:00,36.5,21.9,30.09,North,0,12.0,18.0,55,0.00,,,0.00,meteohub,2013-03-13 22:49:00,
2013-03-13 18:54:00,36.1,23.2,30.09,NE,45,7.0,16.0,59,0.00,,,0.00,meteohub,2013-03-13 22:54:00,
2013-03-13 18:59:00,36.0,23.9,30.09,NE,45,7.0,14.0,61,0.00,,,0.00,meteohub,2013-03-13 22:59:00,
2013-03-13 19:04:00,36.0,23.0,30.10,NW,315,11.0,14.0,59,0.00,,,0.00,meteohub,2013-03-13 23:04:00,
2013-03-13 19:09:00,35.8,22.5,30.10,NW,315,12.0,13.0,58,0.00,,,0.00,meteohub,2013-03-13 23:09:00,
2013-03-13 19:14:00,35.8,22.5,30.10,NW,315,8.0,12.0,58,0.00,,,0.00,meteohub,2013-03-13 23:14:00,
2013-03-13 19:19:00,35.8,22.5,30.10,NW,315,8.0,12.0,58,0.00,,,0.00,meteohub,2013-03-13 23:19:00,
2013-03-13 19:24:00,35.6,20.1,30.10,NE,45,8.0,12.0,53,0.00,,,0.00,meteohub,2013-03-13 23:24:00,
2013-03-13 19:29:00,35.4,19.6,30.10,SE,135,8.0,19.0,52,0.00,,,0.00,meteohub,2013-03-13 23:29:00,
2013-03-13 19:34:00,35.2,18.9,30.10,SSE,158,6.0,19.0,51,0.00,,,0.00,meteohub,2013-03-13 23:34:00,
2013-03-13 19:39:00,35.2,18.9,30.11,SSE,158,6.0,19.0,51,0.00,,,0.00,meteohub,2013-03-13 23:39:00,
2013-03-13 19:44:00,35.1,18.7,30.10,East,90,7.0,11.0,51,0.00,,,0.00,meteohub,2013-03-13 23:44:00,
2013-03-13 19:49:00,34.9,18.5,30.12,South,180,2.0,11.0,51,0.00,,,0.00,meteohub,2013-03-13 23:49:00,
2013-03-13 19:54:00,35.1,18.7,30.11,East,90,2.0,7.0,51,0.00,,,0.00,meteohub,2013-03-13 23:54:00,
2013-03-13 19:59:00,35.1,18.3,30.11,NE,45,21.0,21.0,50,0.00,,,0.00,meteohub,2013-03-13 23:59:00,
2013-03-13 20:04:00,34.9,16.7,30.11,ENE,68,5.0,21.0,47,0.00,,,0.00,meteohub,2013-03-14 00:04:00,
2013-03-13 20:09:00,34.9,16.7,30.12,North,0,16.0,21.0,47,0.00,,,0.00,meteohub,2013-03-14 00:09:00,
2013-03-13 20:14:00,34.7,16.5,30.12,NE,45,10.0,21.0,47,0.00,,,0.00,meteohub,2013-03-14 00:14:00,
2013-03-13 20:19:00,34.5,15.8,30.12,East,90,8.0,16.0,46,0.00,,,0.00,meteohub,2013-03-14 00:19:00,
2013-03-13 20:24:00,34.5,15.8,30.12,North,0,6.0,16.0,46,0.00,,,0.00,meteohub,2013-03-14 00:24:00,
2013-03-13 20:29:00,34.5,15.8,30.12,East,90,6.0,12.0,46,0.00,,,0.00,meteohub,2013-03-14 00:29:00,
2013-03-13 20:34:00,34.3,15.6,30.14,NW,315,5.0,15.0,46,0.00,,,0.00,meteohub,2013-03-14 00:34:00,
2013-03-13 20:39:00,34.3,15.6,30.13,NW,315,5.0,15.0,46,0.00,,,0.00,meteohub,2013-03-14 00:39:00,
2013-03-13 20:44:00,34.2,16.0,30.14,NE,45,4.0,15.0,47,0.00,,,0.00,meteohub,2013-03-14 00:44:00,
2013-03-13 20:49:00,34.0,15.8,30.13,NE,45,11.0,11.0,47,0.00,,,0.00,meteohub,2013-03-14 00:49:00,
2013-03-13 20:54:00,34.0,15.8,30.14,North,0,4.0,11.0,47,0.00,,,0.00,meteohub,2013-03-14 00:54:00,
2013-03-13 20:59:00,33.8,15.6,30.13,NNW,338,9.0,11.0,47,0.00,,,0.00,meteohub,2013-03-14 00:59:00,
2013-03-13 21:04:00,33.6,16.0,30.14,NNW,338,7.0,11.0,48,0.00,,,0.00,meteohub,2013-03-14 01:04:00,
2013-03-13 21:09:00,33.6,16.0,30.14,North,0,7.0,9.0,48,0.00,,,0.00,meteohub,2013-03-14 01:09:00,
2013-03-13 21:14:00,33.4,15.8,30.14,North,0,8.0,13.0,48,0.00,,,0.00,meteohub,2013-03-14 01:14:00,
2013-03-13 21:19:00,33.3,15.6,30.14,North,0,15.0,15.0,48,0.00,,,0.00,meteohub,2013-03-14 01:19:00,
2013-03-13 21:24:00,33.3,15.3,30.15,SE,135,11.0,15.0,47,0.00,,,0.00,meteohub,2013-03-14 01:24:00,
2013-03-13 21:29:00,33.3,15.3,30.15,North,0,8.0,15.0,47,0.00,,,0.00,meteohub,2013-03-14 01:29:00,
2013-03-13 21:34:00,33.1,15.1,30.15,SSE,158,5.0,15.0,47,0.00,,,0.00,meteohub,2013-03-14 01:34:00,
2013-03-13 21:39:00,32.9,15.4,30.15,NE,45,4.0,13.0,48,0.00,,,0.00,meteohub,2013-03-14 01:39:00,
2013-03-13 21:44:00,32.9,15.4,30.15,North,0,11.0,13.0,48,0.00,,,0.00,meteohub,2013-03-14 01:44:00,
2013-03-13 21:49:00,32.9,14.9,30.16,NE,45,5.0,8.0,47,0.00,,,0.00,meteohub,2013-03-14 01:49:00,
2013-03-13 21:54:00,32.9,14.9,30.16,North,0,9.0,15.0,47,0.00,,,0.00,meteohub,2013-03-14 01:54:00,
2013-03-13 21:59:00,32.7,14.7,30.16,South,180,13.0,15.0,47,0.00,,,0.00,meteohub,2013-03-14 01:59:00,
2013-03-13 22:04:00,32.7,14.7,30.16,South,180,13.0,16.0,47,0.00,,,0.00,meteohub,2013-03-14 02:04:00,
2013-03-13 22:09:00,32.7,15.3,30.16,North,0,8.0,16.0,48,0.00,,,0.00,meteohub,2013-03-14 02:09:00,
2013-03-13 22:14:00,32.7,15.3,30.16,NW,315,2.0,16.0,48,0.00,,,0.00,meteohub,2013-03-14 02:14:00,
2013-03-13 22:19:00,32.4,15.3,30.15,NW,315,4.0,15.0,49,0.00,,,0.00,meteohub,2013-03-14 02:19:00,
2013-03-13 22:24:00,32.2,15.6,30.16,North,0,3.0,15.0,50,0.00,,,0.00,meteohub,2013-03-14 02:24:00,
2013-03-13 22:29:00,32.2,16.5,30.17,SE,135,11.0,12.0,52,0.00,,,0.00,meteohub,2013-03-14 02:29:00,
2013-03-13 22:34:00,32.0,16.3,30.16,NE,45,8.0,12.0,52,0.00,,,0.00,meteohub,2013-03-14 02:34:00,
2013-03-13 22:39:00,32.0,16.9,30.17,NE,45,10.0,16.0,53,0.00,,,0.00,meteohub,2013-03-14 02:39:00,
2013-03-13 22:44:00,32.0,16.9,30.16,North,0,12.0,16.0,53,0.00,,,0.00,meteohub,2013-03-14 02:44:00,
2013-03-13 22:49:00,31.8,17.1,30.16,South,180,11.0,16.0,54,0.00,,,0.00,meteohub,2013-03-14 02:49:00,
2013-03-13 22:54:00,31.6,17.2,30.17,WSW,248,8.0,31.0,55,0.00,,,0.00,meteohub,2013-03-14 02:54:00,
2013-03-13 22:59:00,31.6,16.9,30.17,SE,135,8.0,31.0,54,0.00,,,0.00,meteohub,2013-03-14 02:59:00,
2013-03-13 23:05:00,31.5,16.7,30.17,NNW,338,12.0,31.0,54,0.00,,,0.00,meteohub,2013-03-14 03:05:00,
2013-03-13 23:10:00,31.5,16.3,30.17,North,0,8.0,16.0,53,0.00,,,0.00,meteohub,2013-03-14 03:10:00,
2013-03-13 23:15:00,31.5,16.3,30.17,North,0,7.0,27.0,53,0.00,,,0.00,meteohub,2013-03-14 03:15:00,
2013-03-13 23:20:00,31.5,16.3,30.17,NE,45,4.0,27.0,53,0.00,,,0.00,meteohub,2013-03-14 03:20:00,
2013-03-13 23:25:00,31.5,16.3,30.17,North,0,15.0,27.0,53,0.00,,,0.00,meteohub,2013-03-14 03:25:00,
2013-03-13 23:30:00,31.5,15.8,30.17,NE,45,10.0,15.0,52,0.00,,,0.00,meteohub,2013-03-14 03:30:00,
2013-03-13 23:35:00,31.3,15.6,30.17,NW,315,16.0,16.0,52,0.00,,,0.00,meteohub,2013-03-14 03:35:00,
2013-03-13 23:40:00,31.3,15.3,30.17,East,90,15.0,16.0,51,0.00,,,0.00,meteohub,2013-03-14 03:40:00,
2013-03-13 23:45:00,31.5,14.9,30.17,NW,315,10.0,16.0,50,0.00,,,0.00,meteohub,2013-03-14 03:45:00,
2013-03-13 23:50:00,31.5,14.9,30.17,NE,45,5.0,16.0,50,0.00,,,0.00,meteohub,2013-03-14 03:50:00,
2013-03-13 23:55:00,31.5,14.9,30.16,East,90,14.0,16.0,50,0.00,,,0.00,meteohub,2013-03-14 03:55:00,